When you browse on this site, cookies collect data to enhance your experience and personalize the content and advertising you see.
Visit our Privacy Policy to learn more. By continuing to use the site, you agree to this use of cookies and data.

Hourly Weather Porto Velho

Today, 19 September, Saturday

Time Temperature Precipitation Wind Pressure Humidity
00:00 +28°C° 0.1 mm 0 mps 748 mmHg 48%
01:00 +28°C° 0.1 mm 0 mps 748 mmHg 51%
02:00 +27°C° 0.1 mm 0 mps 748 mmHg 55%
03:00 +26°C° 0.2 mm 0 mps 748 mmHg 60%
04:00 +25°C° 0.2 mm 0 mps 748 mmHg 66%
05:00 +24°C° 0.2 mm 0 mps 748 mmHg 72%
06:00 +26°C° 0.1 mm 0 mps 749 mmHg 67%
07:00 +27°C° 0.1 mm 0 mps 750 mmHg 62%
08:00 +29°C° 0.1 mm 0 mps 750 mmHg 58%
09:00 +35°C° 0 mm 1 mps 750 mmHg 47%
10:00 +40°C° 0 mm 1 mps 750 mmHg 35%
11:00 +44°C° 0 mm 1 mps 750 mmHg 24%
12:00 +43°C° 0 mm 1 mps 749 mmHg 24%
13:00 +43°C° 0 mm 1 mps 748 mmHg 24%
14:00 +42°C° 0 mm 1 mps 746 mmHg 24%
15:00 +42°C° 0 mm 1 mps 746 mmHg 25%
16:00 +41°C° 0 mm 1 mps 746 mmHg 26%
17:00 +37°C° 0 mm 0 mps 746 mmHg 28%
18:00 +35°C° 0 mm 0 mps 746 mmHg 31%
19:00 +34°C° 0 mm 0 mps 747 mmHg 35%
20:00 +32°C° 0 mm 0 mps 747 mmHg 38%
21:00 +31°C° 0 mm 0 mps 748 mmHg 40%
22:00 +32°C° 0 mm 1 mps 748 mmHg 42%
23:00 +32°C° 0 mm 1 mps 748 mmHg 44%

Tomorrow, 20 September, Sunday

Time Temperature Precipitation Wind Pressure Humidity
00:00 +31°C° 0 mm 1 mps 748 mmHg 46%
01:00 +30°C° 0 mm 1 mps 747 mmHg 48%
02:00 +30°C° 0 mm 1 mps 747 mmHg 50%
03:00 +29°C° 0.1 mm 1 mps 748 mmHg 55%
04:00 +28°C° 0.1 mm 1 mps 748 mmHg 60%
05:00 +27°C° 0.1 mm 1 mps 748 mmHg 65%
06:00 +28°C° 0.2 mm 1 mps 749 mmHg 66%
07:00 +29°C° 0.2 mm 1 mps 749 mmHg 67%
08:00 +28°C° 0.2 mm 0 mps 750 mmHg 68%
09:00 +34°C° 0 mm 1 mps 750 mmHg 54%
10:00 +39°C° 0 mm 1 mps 750 mmHg 40%
11:00 +43°C° 0 mm 1 mps 750 mmHg 25%
12:00 +43°C° 0 mm 1 mps 749 mmHg 24%
13:00 +43°C° 0 mm 1 mps 747 mmHg 23%
14:00 +40°C° 0 mm 0 mps 746 mmHg 22%
15:00 +42°C° 0 mm 1 mps 746 mmHg 25%
16:00 +41°C° 0 mm 2 mps 746 mmHg 29%
17:00 +39°C° 0 mm 2 mps 746 mmHg 32%
18:00 +37°C° 0.1 mm 2 mps 747 mmHg 41%
19:00 +34°C° 0.1 mm 2 mps 747 mmHg 49%
20:00 +31°C° 0.1 mm 1 mps 748 mmHg 58%
21:00 +30°C° 0 mm 1 mps 748 mmHg 61%
22:00 +29°C° 0 mm 1 mps 748 mmHg 64%
23:00 +28°C° 0 mm 1 mps 749 mmHg 68%

Day after tomorrow, 21 September, Monday

Time Temperature Precipitation Wind Pressure Humidity
00:00 +28°C° 0 mm 1 mps 748 mmHg 67%
01:00 +27°C° 0 mm 1 mps 748 mmHg 67%
02:00 +27°C° 0 mm 1 mps 747 mmHg 66%
03:00 +27°C° 0 mm 1 mps 747 mmHg 66%
04:00 +27°C° 0 mm 1 mps 748 mmHg 66%
05:00 +25°C° 0 mm 0 mps 748 mmHg 65%
06:00 +28°C° 0 mm 1 mps 748 mmHg 61%
07:00 +30°C° 0 mm 1 mps 749 mmHg 56%
08:00 +32°C° 0 mm 1 mps 749 mmHg 51%
09:00 +35°C° 0 mm 1 mps 749 mmHg 44%
10:00 +39°C° 0 mm 1 mps 749 mmHg 37%
11:00 +42°C° 0 mm 1 mps 749 mmHg 29%
12:00 +43°C° 0 mm 1 mps 748 mmHg 26%
13:00 +44°C° 0 mm 1 mps 747 mmHg 24%
14:00 +42°C° 0 mm 0 mps 746 mmHg 21%
15:00 +43°C° 0 mm 1 mps 746 mmHg 24%
16:00 +41°C° 0 mm 1 mps 745 mmHg 28%
17:00 +40°C° 0 mm 1 mps 745 mmHg 31%
18:00 +35°C° 0.3 mm 1 mps 746 mmHg 42%
19:00 +32°C° 0.3 mm 1 mps 746 mmHg 53%
20:00 +27°C° 0.3 mm 0 mps 747 mmHg 64%
21:00 +26°C° 0.2 mm 0 mps 747 mmHg 69%
22:00 +25°C° 0.2 mm 0 mps 747 mmHg 74%
23:00 +24°C° 0.2 mm 0 mps 748 mmHg 80%

22 September, Tuesday

Time Temperature Precipitation Wind Pressure Humidity
00:00 +24°C° 0.2 mm 0 mps 748 mmHg 82%
01:00 +24°C° 0.2 mm 0 mps 748 mmHg 84%
02:00 +23°C° 0.2 mm 0 mps 747 mmHg 86%
03:00 +23°C° 0.2 mm 0 mps 748 mmHg 87%
04:00 +25°C° 0.2 mm 1 mps 748 mmHg 89%
05:00 +25°C° 0.2 mm 1 mps 748 mmHg 90%
06:00 +26°C° 0.4 mm 1 mps 749 mmHg 87%
07:00 +27°C° 0.4 mm 1 mps 749 mmHg 83%
08:00 +28°C° 0.4 mm 1 mps 750 mmHg 80%
09:00 +32°C° 0 mm 1 mps 750 mmHg 64%
10:00 +37°C° 0 mm 1 mps 750 mmHg 48%
11:00 +42°C° 0 mm 1 mps 750 mmHg 32%
12:00 +42°C° 0 mm 1 mps 749 mmHg 31%
13:00 +42°C° 0 mm 1 mps 748 mmHg 30%
14:00 +42°C° 0 mm 1 mps 747 mmHg 29%
15:00 +41°C° 0 mm 1 mps 746 mmHg 30%
16:00 +38°C° 0 mm 0 mps 746 mmHg 31%
17:00 +37°C° 0 mm 0 mps 745 mmHg 32%
18:00 +34°C° 0.2 mm 0 mps 746 mmHg 41%
19:00 +33°C° 0.2 mm 1 mps 747 mmHg 50%
20:00 +31°C° 0.2 mm 1 mps 747 mmHg 60%
21:00 +29°C° 0.5 mm 1 mps 748 mmHg 69%
22:00 +28°C° 0.5 mm 1 mps 748 mmHg 79%
23:00 +26°C° 0.5 mm 1 mps 749 mmHg 89%

23 September, Wednesday

Time Temperature Precipitation Wind Pressure Humidity
00:00 +26°C° 0.1 mm 1 mps 749 mmHg 91%
01:00 +26°C° 0.1 mm 1 mps 749 mmHg 93%
02:00 +23°C° 0.1 mm 0 mps 749 mmHg 95%
03:00 +23°C° 0.2 mm 0 mps 749 mmHg 96%
04:00 +25°C° 0.2 mm 1 mps 749 mmHg 96%
05:00 +25°C° 0.2 mm 1 mps 749 mmHg 97%
06:00 +26°C° 0 mm 1 mps 750 mmHg 92%
07:00 +27°C° 0 mm 1 mps 751 mmHg 87%
08:00 +28°C° 0 mm 1 mps 752 mmHg 83%
09:00 +31°C° 0 mm 1 mps 752 mmHg 71%
10:00 +33°C° 0 mm 1 mps 752 mmHg 59%
11:00 +36°C° 0 mm 1 mps 752 mmHg 47%
12:00 +39°C° 0 mm 1 mps 751 mmHg 41%
13:00 +41°C° 0 mm 1 mps 750 mmHg 36%
14:00 +40°C° 0 mm 0 mps 749 mmHg 31%
15:00 +40°C° 0.4 mm 1 mps 748 mmHg 38%
16:00 +37°C° 0.4 mm 1 mps 747 mmHg 46%
17:00 +35°C° 0.4 mm 2 mps 747 mmHg 53%
18:00 +31°C° 1.1 mm 2 mps 747 mmHg 65%
19:00 +29°C° 1.1 mm 2 mps 748 mmHg 76%
20:00 +26°C° 1.1 mm 2 mps 749 mmHg 88%
21:00 +26°C° 0.3 mm 2 mps 750 mmHg 90%
22:00 +26°C° 0.3 mm 1 mps 750 mmHg 92%
23:00 +26°C° 0.3 mm 1 mps 751 mmHg 94%

24 September, Thursday

Time Temperature Precipitation Wind Pressure Humidity
00:00 +25°C° 0.5 mm 1 mps 751 mmHg 94%
01:00 +25°C° 0.5 mm 1 mps 751 mmHg 95%
02:00 +25°C° 0.5 mm 1 mps 750 mmHg 96%
03:00 +25°C° 0 mm 1 mps 750 mmHg 96%
04:00 +25°C° 0 mm 1 mps 750 mmHg 96%
05:00 +25°C° 0 mm 1 mps 750 mmHg 96%
06:00 +25°C° 0 mm 1 mps 751 mmHg 94%
07:00 +26°C° 0 mm 1 mps 751 mmHg 91%
08:00 +27°C° 0 mm 1 mps 752 mmHg 89%
09:00 +30°C° 0 mm 1 mps 752 mmHg 73%
10:00 +34°C° 0 mm 1 mps 752 mmHg 58%
11:00 +37°C° 0 mm 1 mps 752 mmHg 43%
12:00 +40°C° 0 mm 1 mps 751 mmHg 39%
13:00 +38°C° 0 mm 0 mps 750 mmHg 34%
14:00 +40°C° 0 mm 0 mps 749 mmHg 30%
15:00 +39°C° 0.5 mm 1 mps 749 mmHg 41%
16:00 +36°C° 0.5 mm 2 mps 748 mmHg 52%
17:00 +31°C° 0.5 mm 3 mps 747 mmHg 63%
18:00 +29°C° 4.5 mm 2 mps 748 mmHg 73%
19:00 +27°C° 4.5 mm 2 mps 749 mmHg 84%
20:00 +25°C° 4.5 mm 1 mps 750 mmHg 94%
21:00 +25°C° 0 mm 1 mps 750 mmHg 94%
22:00 +25°C° 0 mm 1 mps 751 mmHg 94%
23:00 +25°C° 0 mm 1 mps 751 mmHg 95%
Show more